Hourly Weather Ust-Chaya

Today, 11 July, Saturday

Time Temperature Precipitation Wind Pressure Humidity
00:00 +16°C° 0 mm 3 mps 746 mmHg 79%
01:00 +16°C° 0 mm 3 mps 746 mmHg 84%
02:00 +14°C° 0 mm 3 mps 746 mmHg 89%
03:00 +13°C° 0 mm 3 mps 746 mmHg 93%
04:00 +14°C° 0 mm 3 mps 747 mmHg 92%
05:00 +14°C° 0 mm 3 mps 747 mmHg 90%
06:00 +16°C° 0 mm 3 mps 747 mmHg 88%
07:00 +18°C° 0 mm 3 mps 748 mmHg 80%
08:00 +19°C° 0 mm 3 mps 748 mmHg 71%
09:00 +21°C° 0 mm 3 mps 748 mmHg 63%
10:00 +22°C° 0 mm 3 mps 748 mmHg 57%
11:00 +25°C° 0 mm 3 mps 748 mmHg 52%
12:00 +26°C° 0 mm 3 mps 748 mmHg 46%
13:00 +26°C° 0 mm 3 mps 749 mmHg 48%
14:00 +26°C° 0 mm 4 mps 749 mmHg 49%
15:00 +26°C° 0 mm 4 mps 749 mmHg 51%
16:00 +26°C° 0 mm 3 mps 749 mmHg 53%
17:00 +25°C° 0 mm 3 mps 749 mmHg 55%
18:00 +25°C° 0 mm 2 mps 749 mmHg 57%
19:00 +23°C° 0 mm 2 mps 749 mmHg 63%
20:00 +21°C° 0 mm 2 mps 749 mmHg 69%
21:00 +20°C° 0 mm 1 mps 749 mmHg 76%
22:00 +19°C° 0 mm 2 mps 749 mmHg 77%
23:00 +18°C° 0 mm 2 mps 749 mmHg 79%

Tomorrow, 12 July, Sunday

Time Temperature Precipitation Wind Pressure Humidity
00:00 +17°C° 0 mm 3 mps 749 mmHg 80%
01:00 +17°C° 0 mm 3 mps 749 mmHg 82%
02:00 +17°C° 0 mm 3 mps 748 mmHg 83%
03:00 +16°C° 0 mm 3 mps 748 mmHg 84%
04:00 +17°C° 0 mm 3 mps 748 mmHg 82%
05:00 +17°C° 0 mm 3 mps 748 mmHg 80%
06:00 +18°C° 0 mm 3 mps 748 mmHg 78%
07:00 +20°C° 0 mm 4 mps 747 mmHg 73%
08:00 +21°C° 0 mm 4 mps 747 mmHg 69%
09:00 +23°C° 0 mm 4 mps 747 mmHg 64%
10:00 +23°C° 0.1 mm 4 mps 747 mmHg 66%
11:00 +23°C° 0.1 mm 5 mps 747 mmHg 68%
12:00 +22°C° 0.1 mm 5 mps 747 mmHg 71%
13:00 +22°C° 0.4 mm 5 mps 746 mmHg 74%
14:00 +22°C° 0.4 mm 5 mps 746 mmHg 78%
15:00 +22°C° 0.4 mm 5 mps 746 mmHg 82%
16:00 +21°C° 1.2 mm 4 mps 746 mmHg 87%
17:00 +20°C° 1.2 mm 4 mps 746 mmHg 91%
18:00 +19°C° 1.2 mm 3 mps 746 mmHg 96%
19:00 +19°C° 2.7 mm 3 mps 747 mmHg 96%
20:00 +19°C° 2.7 mm 3 mps 747 mmHg 97%
21:00 +19°C° 2.7 mm 2 mps 747 mmHg 98%
22:00 +19°C° 0.8 mm 2 mps 747 mmHg 98%
23:00 +18°C° 0.8 mm 2 mps 747 mmHg 98%

Day after tomorrow, 13 July, Monday

Time Temperature Precipitation Wind Pressure Humidity
00:00 +18°C° 0.8 mm 2 mps 747 mmHg 98%
01:00 +18°C° 0.2 mm 2 mps 747 mmHg 98%
02:00 +18°C° 0.2 mm 2 mps 748 mmHg 98%
03:00 +17°C° 0.2 mm 2 mps 748 mmHg 98%
04:00 +18°C° 0.1 mm 2 mps 748 mmHg 98%
05:00 +18°C° 0.1 mm 2 mps 748 mmHg 98%
06:00 +18°C° 0.1 mm 2 mps 749 mmHg 97%
07:00 +19°C° 0 mm 2 mps 749 mmHg 93%
08:00 +20°C° 0 mm 2 mps 749 mmHg 89%
09:00 +20°C° 0 mm 2 mps 749 mmHg 86%
10:00 +21°C° 0 mm 2 mps 749 mmHg 82%
11:00 +22°C° 0 mm 3 mps 750 mmHg 78%
12:00 +22°C° 0 mm 3 mps 750 mmHg 75%
13:00 +24°C° 0 mm 3 mps 750 mmHg 70%
14:00 +25°C° 0 mm 3 mps 750 mmHg 66%
15:00 +26°C° 0 mm 2 mps 750 mmHg 62%
16:00 +26°C° 0 mm 2 mps 750 mmHg 63%
17:00 +26°C° 0 mm 3 mps 750 mmHg 63%
18:00 +26°C° 0 mm 3 mps 750 mmHg 64%
19:00 +24°C° 0 mm 2 mps 750 mmHg 70%
20:00 +23°C° 0 mm 2 mps 750 mmHg 76%
21:00 +20°C° 0 mm 2 mps 750 mmHg 83%
22:00 +20°C° 0 mm 1 mps 750 mmHg 84%
23:00 +19°C° 0 mm 1 mps 750 mmHg 85%

14 July, Tuesday

Time Temperature Precipitation Wind Pressure Humidity
00:00 +18°C° 0 mm 1 mps 751 mmHg 86%
01:00 +18°C° 0 mm 1 mps 751 mmHg 86%
02:00 +17°C° 0 mm 2 mps 751 mmHg 87%
03:00 +16°C° 0 mm 2 mps 751 mmHg 87%
04:00 +17°C° 0 mm 2 mps 751 mmHg 84%
05:00 +18°C° 0 mm 3 mps 752 mmHg 81%
06:00 +19°C° 0 mm 3 mps 752 mmHg 77%
07:00 +19°C° 0 mm 4 mps 752 mmHg 72%
08:00 +20°C° 0 mm 4 mps 753 mmHg 67%
09:00 +21°C° 0 mm 5 mps 753 mmHg 61%
10:00 +22°C° 0 mm 5 mps 754 mmHg 60%
11:00 +23°C° 0 mm 5 mps 754 mmHg 58%
12:00 +23°C° 0 mm 6 mps 754 mmHg 56%
13:00 +23°C° 0 mm 6 mps 754 mmHg 53%
14:00 +23°C° 0 mm 6 mps 755 mmHg 51%
15:00 +24°C° 0 mm 6 mps 755 mmHg 48%
16:00 +23°C° 0 mm 6 mps 755 mmHg 48%
17:00 +22°C° 0 mm 6 mps 756 mmHg 49%
18:00 +21°C° 0 mm 5 mps 756 mmHg 49%
19:00 +19°C° 0 mm 4 mps 757 mmHg 56%
20:00 +17°C° 0 mm 4 mps 757 mmHg 62%
21:00 +14°C° 0 mm 3 mps 758 mmHg 69%
22:00 +14°C° 0 mm 2 mps 758 mmHg 71%
23:00 +13°C° 0 mm 2 mps 758 mmHg 74%

15 July, Wednesday

Time Temperature Precipitation Wind Pressure Humidity
00:00 +12°C° 0 mm 2 mps 759 mmHg 76%
01:00 +12°C° 0 mm 1 mps 759 mmHg 78%
02:00 +11°C° 0 mm 1 mps 759 mmHg 80%
03:00 +10°C° 0 mm 1 mps 760 mmHg 82%
04:00 +11°C° 0 mm 1 mps 760 mmHg 79%
05:00 +12°C° 0 mm 1 mps 760 mmHg 77%
06:00 +13°C° 0 mm 1 mps 761 mmHg 74%
07:00 +15°C° 0 mm 1 mps 761 mmHg 67%
08:00 +18°C° 0 mm 1 mps 761 mmHg 60%
09:00 +20°C° 0 mm 1 mps 761 mmHg 53%
10:00 +21°C° 0 mm 1 mps 760 mmHg 50%
11:00 +22°C° 0 mm 1 mps 760 mmHg 47%
12:00 +23°C° 0 mm 1 mps 760 mmHg 43%
13:00 +23°C° 0 mm 1 mps 760 mmHg 42%
14:00 +24°C° 0 mm 1 mps 759 mmHg 41%
15:00 +25°C° 0 mm 1 mps 759 mmHg 41%
16:00 +25°C° 0 mm 1 mps 759 mmHg 44%
17:00 +24°C° 0 mm 1 mps 758 mmHg 47%
18:00 +24°C° 0 mm 1 mps 758 mmHg 51%
19:00 +23°C° 0 mm 1 mps 758 mmHg 56%
20:00 +21°C° 0 mm 2 mps 758 mmHg 60%
21:00 +19°C° 0 mm 2 mps 757 mmHg 65%
22:00 +19°C° 0 mm 2 mps 757 mmHg 65%
23:00 +19°C° 0 mm 3 mps 757 mmHg 65%

16 July, Thursday

Time Temperature Precipitation Wind Pressure Humidity
00:00 +19°C° 0 mm 3 mps 756 mmHg 65%
01:00 +19°C° 0 mm 3 mps 756 mmHg 67%
02:00 +18°C° 0 mm 3 mps 756 mmHg 68%
03:00 +18°C° 0 mm 3 mps 755 mmHg 70%
04:00 +18°C° 0.1 mm 3 mps 755 mmHg 75%
05:00 +18°C° 0.1 mm 3 mps 755 mmHg 80%
06:00 +18°C° 0.1 mm 3 mps 755 mmHg 86%
07:00 +20°C° 0 mm 3 mps 755 mmHg 82%
08:00 +23°C° 0 mm 2 mps 755 mmHg 79%
09:00 +25°C° 0 mm 2 mps 755 mmHg 75%
10:00 +26°C° 0 mm 2 mps 754 mmHg 69%
11:00 +28°C° 0 mm 3 mps 754 mmHg 63%
12:00 +30°C° 0 mm 3 mps 754 mmHg 57%
13:00 +31°C° 0 mm 3 mps 753 mmHg 55%
14:00 +33°C° 0 mm 3 mps 753 mmHg 52%
15:00 +33°C° 0 mm 3 mps 753 mmHg 50%
16:00 +33°C° 0 mm 3 mps 753 mmHg 53%
17:00 +32°C° 0 mm 2 mps 753 mmHg 55%
18:00 +34°C° 0 mm 2 mps 753 mmHg 58%
19:00 +31°C° 0.1 mm 2 mps 753 mmHg 65%
20:00 +29°C° 0.1 mm 2 mps 753 mmHg 73%
21:00 +27°C° 0.1 mm 2 mps 752 mmHg 80%
22:00 +26°C° 0 mm 2 mps 752 mmHg 82%
23:00 +25°C° 0 mm 2 mps 752 mmHg 83%
Show more